Regional Weather Roundup
Issued by NWS Charleston, SC

Current Version | Previous Version | Text Only | Print | Product List | Glossary Off
Versions: 1 2 3 4 5 6 7 8 9 10 11 12 13 14 15 16 17 18 19 20 21 22 23 24 25 26 27 28 29 30 31 32 33 34 35 36 37 38 39 40 41 42 43 44 45 46 47 48 49 50

000
ASUS42 KCHS 202010
RWRCHS
REGIONAL WEATHER ROUNDUP
NATIONAL WEATHER SERVICE CHARLESTON SC
400 PM EDT MON OCT 20 2014

NOTE: "FAIR" INDICATES FEW OR NO CLOUDS BELOW 12,000 FEET WITH NO
SIGNIFICANT WEATHER AND/OR OBSTRUCTIONS TO VISIBILITY.

NOT ALL STATIONS ARE QUALITY CONTROLLED BY THE NATIONAL
WEATHER SERVICE. USE DATA WITH CAUTION...ESPECIALLY
DEWPOINT OBSERVATIONS.

SCZ027-030-031-034>040-042>050-202100-
...SOUTH CAROLINA...

CITY           SKY/WX    TMP DP  RH WIND       PRES   REMARKS
N CHARLESTON   MOSUNNY   78  58  49 SE12      30.02F
WATERFRONT PRK   N/A     73 N/A N/A SE9G16      N/A
FORT JOHNSON   NOT AVBL
JOHNS ISLAND   MOCLDY    77  61  57 S7        30.02F
PINOPOLIS        N/A     77  57  50 SW7       29.92F
MONCKS CORNER  FAIR      75  61  60 S7        30.00F
SUMMERVILLE    FAIR      77  59  53 S7        30.01F
BEAUFORT MCAS  MOSUNNY   78  60  53 VRB5      30.01F
BEAUFORT ARPT  FAIR      77  61  57 S6        30.01S
HILTON HEAD IS SUNNY     75  63  64 E5        30.02F
GEORGETOWN     NOT AVBL
WALTERBORO     PTCLDY    79  50  36 SW7       30.01F
ORANGEBURG     PTSUNNY   75  53  46 S10       30.01F
BARNWELL       FAIR      75  54  46 S8        30.01F
AIKEN          FAIR      73  52  46 SW7       30.04F
MANNING        FAIR      75  57  53 S6        30.01F
KINGSTREE      NOT AVBL
COLUMBIA       MOSUNNY   75  48  38 SW8       29.99F
SUMTER         MOSUNNY   75  53  46 SW8       29.99F
FLORENCE       MOSUNNY   75  53  46 SW6       30.00F
MYRTLE BEACH   MOSUNNY   73  57  56 S9        30.03F
N MYRTLE BEACH SUNNY     72  57  59 S7        30.03F

$$

GAZ063-065-086>088-099>101-113>116-118-119-134-136>141-150-202100-
...GEORGIA...

CITY           SKY/WX    TMP DP  RH WIND       PRES   REMARKS
SAVANNAH ARPT  PTSUNNY   78  59  51 SE6       30.00F
HUNTER AAF     PTSUNNY   78  62  57 S8        29.99F
FORT STEWART   PTSUNNY   76  62  61 SE5       29.99S
STATESBORO     NOT AVBL
SYLVANIA       MOCLDY    81  61  51 S3        30.01F
CLAXTON        FAIR      79  59  50 CALM      30.00F
THOMSON        SUNNY     75  54  48 SW3       30.05F
AUGUSTA-BUSH   SUNNY     76  47  35 SW7       29.99F
AUGUSTA-DANIEL SUNNY     76  46  34 VRB5      30.01F
SWAINSBORO     MOCLDY    79  59  50 MISG      30.01F
VIDALIA        MOSUNNY   75  59  57 W5        30.01F
ALMA           PTSUNNY   78  61  55 CALM      29.99F
WAYCROSS       MOSUNNY   83  65  55 S3        29.99S
JESUP          CLOUDY    81  66  61 SE5       30.00S
BRUNSWICK      PTSUNNY   79  59  50 SE3       30.01S
SAINT SIMONS   MOSUNNY   77  61  57 SE8       30.00F

$$

SCZ027-028-034-036>038-045-046-048>050-GAZ119-141-202100-
...LAKE AND SUPPLEMENTAL COASTAL OBSERVATIONS...

STATION/POSITION TIME  TEMP    WIND        PRES    WAVE   SWELL
                       AIR SEA DIR/SP/G            HT/PER HT/PER/DIR
                 (UTC) (F)     (DEG/KT/KT) (MB)    (FT/S) (FT/S/D)
UPR LAKE MARION  NOT AVBL
WINYAH BAY       1900   72     120/  8     1017.0S
LAKE MURRAY      1900   71     110/  2/  4 1015.6F
ACE BASIN NERRS  1900   76     170/  2     1017.0S
FORT PULASKI     2000   75     100/  5/  8 1016.4F
SAPELO ISLAND    NOT AVBL

$$

ANZ835-935-AMZ111-154-330-350-352-354-374-450-454-472-202100-
...C-MAN AND BUOY OBSERVATIONS...

STATION/POSITION TIME  TEMP    WIND        PRES    WAVE   SWELL
                       AIR SEA DIR/SP/G            HT/PER HT/PER/DIR
                 (UTC) (F)     (DEG/KT/KT) (MB)    (FT/S) (FT/S/D)
FOLLY BEACH CMAN 1900   72     140/  6/  7 1017.3F
BUOY 41004       2000   74 80  110/  8/ 10 1016.2F   2/ 9   2/ 9
BUOY 41008       2000   76 76  150/  6/  8 1016.1F   2/ 8   2/ 80/ 8
5E ST. MARYS GA  2000      78                N/A     3/11   2/ 80/11
FRYING PAN BUOY  2000   71 76   90/  6/  8 1017.8F   2/ 9   2/120/ 9
BUOY 41025       2000   71     180/ 12/ 16 1018.0F   3/12   3/ 50/12
CAPE LOOKOUT NC  1900   68     100/  3/  4 1018.1F
BUOY 41002       1854   72 80   90/  8/ 12 1018.5    4/ 8   3/ 40/ 8
BUOY 41010       2000   79 80  100/ 12/ 14 1015.4S   4/ 7   3/ 30/ 7
BUOY 41012       NOT AVBL
ST AUGUSTINE FL  2000   77     120/  9/ 10 1016.1F
CAPERS NEARSHORE 1900   74     140/  6/  8   N/A
FRIPP NEARSHORE  NOT AVBL


$$



USA.gov is the U.S. government's official web portal to all federal, state and local government web resources and services.